Regional Weather Roundup
Issued by NWS

Home | Current Version | Previous Version | Graphics & Text | Print | Product List | Glossary On
Versions: 1 2 3 4 5 6 7 8 9 10 11 12 13 14 15 16 17 18 19 20 21 22 23 24 25 26 27
000
ASUS45 KSLC 191010
RWRUT

UTAH REGIONAL WEATHER ROUNDUP
NATIONAL WEATHER SERVICE SALT LAKE CITY UT
300 AM MST SUN FEB 19 2017

UTZ001>011-023>025-191100-

NORTHERN UTAH

CITY           SKY/WX    TMP DP  RH WIND       PRES   REMARKS
BRIGHAM CITY     N/A     44  39  83 SE6       29.62S
HILL AFB       LGT RAIN  44  37  75 S10       29.61R
LOGAN          LGT RAIN  45  38  76 S10       29.60R
OGDEN          LGT RAIN  44  37  76 W6        29.61R
SALT LAKE CITY CLOUDY    50  35  56 S20       29.60S
TOOELE VALLEY  CLOUDY    50  37  62 S12       29.61R
WENDOVER       MOCLDY    41  36  81 NE6       29.58S
HEBER CITY     CLOUDY    45  32  61 S8G16     29.65S
WEST JORDAN    CLOUDY    49  43  79 S8        29.63S

$$

UTZ011>015-024>027-191100-

CENTRAL/NORTHEAST UTAH

CITY           SKY/WX    TMP DP  RH WIND       PRES   REMARKS
PROVO AIRPORT  CLOUDY    47  34  60 SE7       29.65S
MOAB/CANYONLAN FOG       39  39 100 SW5       29.71R VSB 1/2
DELTA          MOCLDY    41  36  81 S5        29.65S
PRICE          CLOUDY    34  34 100 E5        29.72F FOG     WCI  30
RICHFIELD      MOCLDY    37  34  87 S3        29.68S
ROOSEVELT      CLOUDY    36  32  87 CALM      29.75S
VERNAL         FOG       34  34 100 CALM      29.73F VSB 1/4

$$

UTZ013>016-019>022-027-191100-

SOUTHERN UTAH

CITY           SKY/WX    TMP DP  RH WIND       PRES   REMARKS
BRYCE CANYON   LGT SNOW  34  32  92 SE8       29.74R FOG     WCI  27
CEDAR CITY     CLOUDY    40  37  89 SE12      29.67S WCI  33
MILFORD        PTCLDY    38  34  85 W10       29.65S WCI  31
ST GEORGE      CLOUDY    47  45  93 SW3       29.69R
HANKSVILLE     CLOUDY    39  37  93 CALM      29.75R
KANAB          CLOUDY    41  41 100 NW1       29.77R FOG
BLANDING       CLOUDY    41  32  71 CALM      29.81R

$$

REGIONAL REPORTS     COLORADO/ARIZONA

CITY           SKY/WX    TMP DP  RH WIND       PRES   REMARKS
CRAIG, CO      CLOUDY    25  23  92 CALM      29.75F
GRAND JUNCTION CLOUDY    38  37  97 CALM      29.74R
RIFLE, CO      CLOUDY    31  29  92 CALM      29.76S
MONTROSE, CO   CLOUDY    33  31  92 S8        29.77F WCI  26
CORTEZ, CO     CLOUDY    46  28  49 E7        29.74F
COLORADO CITY  CLOUDY    43  41  93 SE7       29.74R
PAGE, AZ       LGT RAIN  44  39  82 CALM      29.70S
GRAND CANYON   LGT SNOW  33  33 100 SW5       29.75S FOG     WCI  29
KINGMAN, AZ    CLOUDY    44  41  89 NW3       29.73R FOG
FLAGSTAFF, AZ  LGT SNOW  30  29  96 W7        29.76R FOG     WCI  23

$$

REGIONAL REPORTS    NEVADA/IDAHO/WYOMING

CITY           SKY/WX    TMP DP  RH WIND       PRES   REMARKS
LAS VEGAS, NV  CLOUDY    51  48  89 E3        29.67S
ELY, NY        LGT RAIN  33  32  96 S9        29.66R WCI  25
ELKO, NV       CLOUDY    37  34  89 S5        29.59R WCI  33
POCATELLO, ID  LGT RAIN  36  34  92 S7        29.60R WCI  30
BURLEY, ID     LGT RAIN  42  37  82 S6        29.55S
FORT BRIDGER,  CLOUDY    32  32 100 S5        29.67F WCI  27
EVANSTON, WY   CLOUDY    35  27  72 SW8       29.64S WCI  29
ROCK SPRINGS,  CLOUDY    39  29  67 S12       29.66S WCI  32
KEMMERER, WY     N/A     32  30  93 CALM      29.66S

$$




USA.gov is the U.S. government's official web portal to all federal, state and local government web resources and services.